Weather History for Warrenton, VA

Change the Weather History Date:

Monday, November 12, 2012

  Actual Average (KHEF) Record (KHEF)
Temperature  
Mean Temperature 56 °F -  
Max Temperature 73 °F 54 °F 71 °F (2012)
Min Temperature 41 °F 31 °F 19 °F (2001)
Degree Days  
Heating Degree Days 8    
Growing Degree Days 6 (Base 50)    
Moisture  
Dew Point 56 °F    
Average Humidity 87    
Maximum Humidity 100    
Minimum Humidity 66    
Precipitation  
Precipitation 0.00 in - - ()
Sea Level Pressure  
Sea Level Pressure 30.28 in    
Wind  
Wind Speed 2 mph (South)    
Max Wind Speed 9 mph    
Max Gust Speed -    
Visibility 10 miles    
Events Rain    
Averages and records for this station are not official NWS values.
T = Trace of Precipitation, MM = Missing Value Source: NWS Daily Summary

Daily Weather History Graph

Daily Weather History Graph

Search for Another Location

Airport:

Trip Planner

Search our weather history database for the weather conditions in past years. The results will help you decide how hot, cold, wet, or windy it might be!

Date:

Astronomy

Nov. 12, 2012 Rise Set
Actual Time 6:50 AM EST 4:59 PM EST
Civil Twilight 6:21 AM EST 5:27 PM EST
Nautical Twilight 5:49 AM EST 5:59 PM EST
Astronomical Twilight 5:18 AM EST 6:31 PM EST
Moon 5:13 AM EST (11/12) 4:02 PM EST (11/12)
Length of Visible Light 11h 06m
Length of Day
10h 09m
Waning Crescent, 2% of the Moon is Illuminated
Nov 12
Waning Crescent
Nov 13
New
Nov 20
First Quarter
Nov 28
Full
Dec 6
Last Quarter

Hourly Weather History & Observations

Time (EST) Temp. Windchill Dew Point Humidity Pressure Visibility Wind Dir Wind Speed Gust Speed Precip Events Conditions
12:15 AM 52.5 °F - 47.3 °F 82% 30.41 in 10.0 mi Calm Calm - N/A   Clear
12:35 AM 50.5 °F - 46.9 °F 87% 30.41 in 10.0 mi Calm Calm - N/A   Clear
12:55 AM 49.8 °F - 46.4 °F 88% 30.40 in 10.0 mi Calm Calm - N/A   Clear
1:15 AM 47.1 °F - 45.9 °F 95% 30.40 in 10.0 mi Calm Calm - N/A   Clear
1:35 AM 46.4 °F - 45.3 °F 96% 30.40 in 10.0 mi Calm Calm - N/A   Clear
1:55 AM 44.8 °F - 44.1 °F 97% 30.40 in 10.0 mi Calm Calm - N/A   Clear
2:15 AM 45.3 °F - 44.4 °F 97% 30.40 in 10.0 mi Calm Calm - N/A   Clear
2:35 AM 44.8 °F - 44.8 °F 100% 30.39 in 10.0 mi Calm Calm - N/A   Clear
2:55 AM 43.0 °F - 43.0 °F 100% 30.39 in 10.0 mi Calm Calm - N/A   Clear
3:15 AM 42.8 °F - 42.8 °F 100% 30.39 in 10.0 mi Calm Calm - N/A   Clear
3:35 AM 43.9 °F - 43.3 °F 98% 30.39 in 10.0 mi Calm Calm - N/A   Clear
3:55 AM 43.0 °F - 43.0 °F 100% 30.38 in 10.0 mi Calm Calm - N/A   Clear
4:35 AM 43.2 °F - 43.2 °F 100% 30.38 in 10.0 mi Calm Calm - N/A   Clear
4:55 AM 42.1 °F - 42.1 °F 100% 30.38 in 10.0 mi Calm Calm - N/A   Clear
5:15 AM 42.4 °F - 42.4 °F 100% 30.38 in 10.0 mi Calm Calm - N/A   Clear
5:35 AM 41.5 °F - 41.5 °F 100% 30.37 in 10.0 mi Calm Calm - N/A   Clear
5:55 AM 42.3 °F - 42.3 °F 100% 30.37 in 10.0 mi Calm Calm - N/A   Clear
6:15 AM 41.2 °F - 41.2 °F 100% 30.37 in 10.0 mi Calm Calm - N/A   Clear
6:35 AM 42.1 °F 40.2 °F 42.1 °F 100% 30.37 in 7.0 mi South 3.5 mph - N/A   Clear
7:15 AM 50.5 °F - 50.5 °F 100% 30.38 in 10.0 mi Calm Calm - N/A   Clear
7:35 AM 51.1 °F - 51.1 °F 100% 30.39 in 10.0 mi Calm Calm - N/A   Clear
7:55 AM 54.5 °F - 54.5 °F 100% 30.38 in 10.0 mi Calm Calm - N/A   Clear
8:15 AM 56.5 °F - 55.6 °F 97% 30.38 in 10.0 mi South 5.8 mph - N/A   Clear
8:35 AM 59.0 °F - 57.2 °F 94% 30.38 in 10.0 mi South 4.6 mph - N/A   Clear
8:55 AM 59.0 °F - 57.2 °F 94% 30.37 in 10.0 mi South 5.8 mph - N/A   Clear
9:15 AM 59.4 °F - 57.2 °F 93% 30.37 in 10.0 mi South 8.1 mph - N/A   Clear
9:55 AM 62.2 °F - 58.5 °F 87% 30.36 in 10.0 mi South 6.9 mph - N/A   Clear
10:15 AM 63.3 °F - 59.0 °F 86% 30.35 in 10.0 mi South 4.6 mph - N/A   Clear
10:35 AM 65.1 °F - 59.5 °F 82% 30.35 in 10.0 mi South 6.9 mph - N/A   Clear
10:55 AM 66.0 °F - 59.9 °F 81% 30.34 in 10.0 mi South 8.1 mph - N/A   Clear
11:15 AM 67.1 °F - 60.4 °F 79% 30.33 in 10.0 mi SSW 9.2 mph - N/A   Clear
11:35 AM 67.5 °F - 61.2 °F 80% 30.33 in 10.0 mi WSW 4.6 mph - N/A   Clear
11:55 AM 67.6 °F - 61.2 °F 80% 30.32 in 10.0 mi Calm Calm - N/A   Clear
12:15 PM 68.9 °F - 61.7 °F 78% 30.30 in 10.0 mi West 3.5 mph - N/A   Scattered Clouds
12:35 PM 68.7 °F - 61.9 °F 79% 30.30 in 10.0 mi West 3.5 mph - N/A   Scattered Clouds
12:55 PM 69.4 °F - 62.1 °F 77% 30.28 in 10.0 mi West 3.5 mph - N/A   Mostly Cloudy
1:15 PM 68.0 °F - 61.7 °F 80% 30.27 in 10.0 mi Calm Calm - N/A   Scattered Clouds
1:35 PM 68.0 °F - 61.7 °F 80% 30.26 in 10.0 mi West 3.5 mph - N/A   Scattered Clouds
1:55 PM 68.4 °F - 62.2 °F 81% 30.25 in 10.0 mi West 3.5 mph - N/A   Clear
2:15 PM 69.1 °F - 61.9 °F 78% 30.24 in 10.0 mi West 3.5 mph - N/A   Scattered Clouds
2:35 PM 70.3 °F - 61.2 °F 73% 30.23 in 10.0 mi SSW 3.5 mph - N/A   Scattered Clouds
2:55 PM 70.7 °F - 60.6 °F 70% 30.21 in 10.0 mi South 9.2 mph - N/A   Clear
3:15 PM 70.7 °F - 60.6 °F 70% 30.20 in 10.0 mi South 6.9 mph - N/A   Clear
3:35 PM 72.5 °F - 61.0 °F 67% 30.20 in 10.0 mi South 8.1 mph - N/A   Clear
3:55 PM 72.7 °F - 60.8 °F 66% 30.19 in 10.0 mi South 5.8 mph - N/A   Clear
4:15 PM 71.2 °F - 60.3 °F 68% 30.20 in 10.0 mi South 6.9 mph - N/A   Scattered Clouds
4:35 PM 70.7 °F - 60.4 °F 70% 30.19 in 10.0 mi South 6.9 mph - N/A   Mostly Cloudy
4:55 PM 70.7 °F - 60.8 °F 71% 30.20 in 10.0 mi South 6.9 mph - N/A   Overcast
5:15 PM 70.2 °F - 60.8 °F 72% 30.19 in 10.0 mi SSE 5.8 mph - N/A   Overcast
5:35 PM 70.2 °F - 60.6 °F 72% 30.18 in 10.0 mi SSE 3.5 mph - N/A   Overcast
5:55 PM 69.6 °F - 60.4 °F 73% 30.18 in 10.0 mi SE 4.6 mph - N/A   Overcast
6:15 PM 69.8 °F - 60.4 °F 72% 30.18 in 10.0 mi SE 5.8 mph - N/A   Overcast
6:35 PM 70.0 °F - 60.4 °F 72% 30.17 in 10.0 mi SSE 5.8 mph - N/A   Overcast
6:55 PM 67.8 °F - 61.3 °F 80% 30.18 in 10.0 mi SW 4.6 mph - N/A   Overcast
7:15 PM 66.6 °F - 62.2 °F 86% 30.18 in 10.0 mi WSW 5.8 mph - N/A Rain Light Rain
7:35 PM 65.5 °F - 62.6 °F 90% 30.18 in 10.0 mi SSW 4.6 mph - N/A   Overcast
7:55 PM 64.9 °F - 62.6 °F 92% 30.17 in 10.0 mi South 3.5 mph - N/A   Mostly Cloudy
8:15 PM 64.6 °F - 62.6 °F 93% 30.17 in 10.0 mi Calm Calm - N/A   Scattered Clouds
8:35 PM 62.1 °F - 61.3 °F 97% 30.17 in 10.0 mi Calm Calm - N/A   Clear
8:55 PM 60.8 °F - 60.8 °F 100% 30.16 in 10.0 mi Calm Calm - N/A   Mostly Cloudy
9:15 PM 62.6 °F - 61.9 °F 97% 30.15 in 10.0 mi Calm Calm - N/A   Overcast
9:35 PM 62.8 °F - 62.1 °F 97% 30.15 in 10.0 mi Calm Calm - N/A   Overcast
9:55 PM 61.7 °F - 61.2 °F 98% 30.15 in 10.0 mi SSE 3.5 mph - N/A   Mostly Cloudy
10:15 PM 64.0 °F - 61.7 °F 92% 30.14 in 10.0 mi SSE 3.5 mph - N/A   Mostly Cloudy
10:35 PM 65.3 °F - 61.7 °F 88% 30.14 in 10.0 mi Calm Calm - N/A   Mostly Cloudy
10:55 PM 65.5 °F - 61.7 °F 88% 30.13 in 10.0 mi Calm Calm - N/A   Overcast
11:15 PM 65.7 °F - 61.9 °F 88% 30.13 in 10.0 mi South 3.5 mph - N/A   Overcast
11:35 PM 66.0 °F - 62.4 °F 88% 30.13 in 10.0 mi SSE 4.6 mph - N/A   Overcast
11:55 PM 67.1 °F - 63.3 °F 88% 30.13 in 10.0 mi South 3.5 mph - N/A   Overcast